DW9434 Weather Reports


time (UTC)temp
C
wind
direction
speed
KPH
gust
KPH
rain 1hr
cm
rain 24hr
cm
rain mn
cm
humidity
%
barometer
mb
20260506061517 11 74 0.0 0.0 0.03 0.18 0.05 89 1015.9
20260506044512 11 74 0.0 0.0 0.00 0.61 0.03 88 1015.1
20260506043012 11 74 0.0 0.0 0.00 0.61 0.03 88 1015.0
20260506041512 11 74 0.0 0.0 0.00 0.61 0.03 88 1015.0
20260506040010 11 332 0.0 0.0 0.00 0.61 0.03 88 1014.9
20260506034510 11 332 0.0 0.0 0.00 1.55 0.03 87 1014.7
20260506033011 12 332 0.0 0.0 0.00 1.55 0.03 87 1014.2
20260506031516 12 332 0.0 0.0 0.00 1.55 0.03 86 1014.4
20260506030008 12 332 0.0 0.0 0.00 1.55 0.03 86 1014.4
20260506024509 12 332 0.0 0.0 0.00 2.01 0.03 85 1014.0
20260506023008 12 332 0.0 0.0 0.00 2.01 0.03 85 1013.9
20260506021507 12 332 0.0 0.0 0.00 2.01 0.03 85 1013.8
20260506020007 12 332 0.0 0.0 0.00 2.01 0.03 85 1013.5
20260506014504 12 332 0.0 0.0 0.00 2.08 0.03 86 1013.3
20260506013111 12 332 0.0 1.6 0.00 2.08 0.03 86 1013.4
20260506011510 12 332 0.0 0.0 0.00 2.08 0.03 86 1013.4
20260506010004 12 332 0.0 0.0 0.00 2.36 0.03 85 1013.4
20260506004505 12 332 0.0 0.0 0.00 2.36 0.03 85 1013.5
20260506003001 12 332 0.0 0.0 0.00 2.36 0.03 85 1013.4
20260506001502 12 332 0.0 0.0 0.00 2.36 0.03 84 1013.3
20260506000100 12 332 0.0 0.0 0.00 2.36 0.03 84 1013.2
20260505234559 12 332 0.0 0.0 0.00 2.62 0.03 84 1013.2
20260505233121 12 332 0.0 0.0 0.00 2.62 0.03 83 1013.2
20260505231559 12 332 0.0 0.0 0.00 2.62 0.03 83 1013.2
20260505230059 13 332 0.0 0.0 0.00 2.62 0.03 82 1013.3
20260505224626 13 332 0.0 1.6 0.00 2.87 0.03 82 1013.3
20260505223019 12 332 0.0 1.6 0.00 2.87 0.03 81 1013.3
20260505221550 12 332 0.0 1.6 0.00 2.87 0.03 82 1013.4
20260505220017 12 332 0.0 1.6 0.00 2.87 0.03 84 1013.5
20260505214513 12 332 0.0 1.6 0.00 3.12 0.03 83 1013.5
20260505213020 12 314 0.0 0.0 0.00 3.12 0.03 84 1013.6
20260505211517 12 314 0.0 1.6 0.00 3.12 0.03 85 1013.5
20260505210012 12 360 0.0 0.0 0.00 3.12 0.03 85 1013.5
20260505204511 12 5 0.0 1.6 0.00 3.20 0.03 85 1013.5
20260505203023 12 12 0.0 1.6 0.00 3.20 0.03 85 1013.4
20260505201511 12 12 0.0 0.0 0.00 3.20 0.03 85 1013.4
20260505200009 12 12 0.0 3.2 0.00 3.20 0.03 85 1013.5
20260505194508 12 107 0.0 1.6 0.00 3.25 0.03 85 1013.5
20260505193009 12 107 0.0 1.6 0.00 3.25 0.03 85 1013.5
20260505191507 12 107 0.0 0.0 0.00 3.25 0.03 84 1013.5
20260505190005 11 107 0.0 0.0 0.00 3.25 0.03 85 1013.3
20260505184502 11 107 0.0 0.0 0.00 3.25 0.03 86 1013.3
20260505183136 11 107 0.0 0.0 0.00 3.25 0.03 89 1013.3
20260505181558 11 107 0.0 1.6 0.00 3.25 0.03 90 1013.1
20260505180056 10 107 0.0 0.0 0.00 3.25 0.03 91 1013.1
20260505174553 10 107 0.0 0.0 0.00 3.25 0.03 92 1013.1
20260505173054 10 107 0.0 0.0 0.00 3.25 0.03 92 1013.0
20260505171557 10 107 0.0 0.0 0.00 3.25 0.03 92 1013.0
20260505170046 10 107 0.0 3.2 0.00 3.25 0.03 92 1013.0
20260505164545 9 96 0.0 3.2 0.00 3.25 0.03 92 1013.0
20260505163044 9 96 0.0 0.0 0.00 3.25 0.03 92 1013.0
20260505161548 9 96 0.0 0.0 0.00 3.25 0.03 93 1012.9
20260505153034 8 96 0.0 0.0 0.00 3.25 0.03 93 1012.7
20260505151535 8 71 0.0 0.0 0.00 3.25 0.03 93 1012.6
20260505124518 8 71 0.0 0.0 0.00 3.25 0.03 92 1011.8
20260505123057 8 71 0.0 0.0 0.00 3.25 0.03 92 1011.5
20260505121557 8 71 0.0 1.6 0.00 3.25 0.03 93 1011.4
20260505120045 8 71 0.0 0.0 0.00 3.25 0.03 92 1011.4
20260505114517 8 71 0.0 0.0 0.00 3.25 0.03 92 1011.6
20260505113021 8 71 0.0 0.0 0.00 3.25 0.03 92 1011.8
20260505111521 8 71 0.0 0.0 0.00 3.25 0.03 92 1011.9
20260505101522 8 71 0.0 0.0 0.00 3.25 0.03 92 1011.9
20260505100024 8 71 0.0 0.0 0.00 3.25 0.03 92 1011.8
20260505094517 8 71 0.0 0.0 0.00 3.25 0.03 92 1011.9
20260505093016 8 71 0.0 3.2 0.00 3.25 0.03 92 1011.9
20260505091524 8 71 0.0 0.0 0.00 3.25 0.03 92 1012.1
20260505090033 8 71 0.0 0.0 0.00 3.25 0.03 92 1012.2
20260505084513 8 71 0.0 3.2 0.00 3.25 0.03 92 1012.4
20260505083015 8 71 0.0 1.6 0.00 3.25 0.03 92 1012.6
20260505081515 8 71 0.0 1.6 0.00 3.25 0.03 92 1012.6
20260505080007 8 71 0.0 1.6 0.03 3.25 0.03 92 1012.6
20260505074506 8 71 0.0 0.0 0.08 3.25 0.03 92 1012.4
20260505073007 8 71 0.0 0.0 0.08 3.25 0.03 92 1012.2
20260505071514 8 71 0.0 0.0 0.13 3.25 0.03 92 1012.5